| time (UTC) | temp F | wind direction | speed knots | gust knots | rain 1hr in | rain 24hr in | rain mn in | humidity % | barometer mb |
| 20260508004523 | 64 | 68 | 0.9 | 6.1 | 0.10 | 0.20 | 0.20 | 93 | 1016.1 |
| 20260508003020 | 65 | 342 | 1.7 | 6.1 | 0.07 | 0.17 | 0.17 | 91 | 1016.5 |
| 20260508001518 | 66 | 102 | 0.9 | 5.2 | 0.02 | 0.12 | 0.12 | 89 | 1016.6 |
| 20260508000015 | 66 | 81 | 1.7 | 7.8 | 0.01 | 0.09 | 0.09 | 90 | 1017.0 |
| 20260507234517 | 65 | 88 | 1.7 | 5.2 | 0.01 | 0.09 | 0.09 | 91 | 1017.3 |
| 20260507233028 | 64 | 104 | 0.9 | 5.2 | 0.01 | 0.09 | 0.09 | 91 | 1017.6 |
| 20260507231509 | 65 | 120 | 4.3 | 14.8 | 0.01 | 0.09 | 0.09 | 88 | 1017.8 |
| 20260507230008 | 67 | 75 | 2.6 | 7.8 | 0.00 | 0.09 | 0.09 | 83 | 1017.8 |
| 20260507224508 | 68 | 120 | 1.7 | 6.1 | 0.00 | 0.09 | 0.09 | 84 | 1017.8 |
| 20260507223006 | 68 | 155 | 0.9 | 4.3 | 0.00 | 0.09 | 0.09 | 84 | 1018.0 |
| 20260507221510 | 67 | 103 | 1.7 | 5.2 | 0.00 | 0.09 | 0.09 | 86 | 1018.1 |
| 20260507220003 | 66 | 111 | 0.9 | 4.3 | 0.00 | 0.09 | 0.09 | 89 | 1018.2 |
| 20260507214502 | 66 | 128 | 1.7 | 6.1 | 0.00 | 0.09 | 0.09 | 88 | 1018.2 |
| 20260507213104 | 66 | 98 | 1.7 | 5.2 | 0.00 | 0.09 | 0.09 | 88 | 1018.3 |
| 20260507211615 | 67 | 68 | 0.9 | 5.2 | 0.00 | 0.09 | 0.09 | 88 | 1018.5 |
| 20260507210106 | 67 | 110 | 1.7 | 4.3 | 0.00 | 0.09 | 0.09 | 87 | 1018.6 |
| 20260507204558 | 67 | 102 | 0.9 | 4.3 | 0.00 | 0.09 | 0.09 | 91 | 1018.4 |
| 20260507203105 | 65 | 80 | 1.7 | 5.2 | 0.00 | 0.09 | 0.09 | 92 | 1018.4 |
| 20260507201557 | 64 | 123 | 0.0 | 6.1 | 0.00 | 0.09 | 0.09 | 93 | 1018.7 |
| 20260507200103 | 64 | 87 | 1.7 | 5.2 | 0.00 | 0.09 | 0.09 | 93 | 1018.4 |
| 20260507194547 | 64 | 105 | 1.7 | 6.1 | 0.00 | 0.09 | 0.09 | 94 | 1018.3 |
| 20260507193049 | 63 | 84 | 0.9 | 4.3 | 0.00 | 0.09 | 0.09 | 95 | 1018.4 |
| 20260507191545 | 63 | 103 | 0.9 | 7.0 | 0.00 | 0.09 | 0.09 | 96 | 1018.5 |
| 20260507190048 | 63 | 101 | 0.9 | 3.5 | 0.00 | 0.09 | 0.09 | 96 | 1018.5 |
| 20260507184547 | 62 | 107 | 0.9 | 6.1 | 0.00 | 0.09 | 0.09 | 97 | 1018.5 |
| 20260507183046 | 62 | 68 | 1.7 | 5.2 | 0.00 | 0.09 | 0.09 | 97 | 1018.6 |
| 20260507181540 | 62 | 105 | 0.0 | 1.7 | 0.00 | 0.09 | 0.09 | 97 | 1018.8 |
| 20260507180045 | 61 | 119 | 0.0 | 0.9 | 0.00 | 0.09 | 0.09 | 97 | 1018.7 |
| 20260507174539 | 61 | 146 | 0.0 | 0.0 | 0.00 | 0.09 | 0.09 | 96 | 1018.9 |
| 20260507173037 | 61 | 147 | 0.0 | 0.0 | 0.00 | 0.09 | 0.09 | 96 | 1019.0 |
| 20260507171535 | 61 | 146 | 0.0 | 0.0 | 0.00 | 0.09 | 0.09 | 96 | 1019.1 |
| 20260507170037 | 61 | 146 | 0.0 | 0.0 | 0.00 | 0.09 | 0.09 | 96 | 1019.1 |
| 20260507164541 | 61 | 146 | 0.0 | 0.9 | 0.00 | 0.09 | 0.09 | 96 | 1019.1 |
| 20260507163033 | 61 | 146 | 0.0 | 0.0 | 0.00 | 0.09 | 0.09 | 96 | 1019.2 |
| 20260507161533 | 61 | 147 | 0.0 | 0.9 | 0.00 | 0.09 | 0.09 | 96 | 1019.1 |
| 20260507160032 | 62 | 147 | 0.0 | 0.0 | 0.00 | 0.09 | 0.09 | 96 | 1019.3 |
| 20260507154530 | 62 | 146 | 0.0 | 0.0 | 0.00 | 0.09 | 0.09 | 96 | 1019.5 |
| 20260507153026 | 62 | 147 | 0.0 | 0.0 | 0.00 | 0.09 | 0.09 | 96 | 1019.7 |
| 20260507151525 | 62 | 146 | 0.0 | 0.0 | 0.00 | 0.09 | 0.09 | 96 | 1019.9 |
| 20260507150025 | 62 | 146 | 0.0 | 0.9 | 0.01 | 0.09 | 0.09 | 95 | 1020.1 |
| 20260507144525 | 62 | 146 | 0.0 | 0.9 | 0.01 | 0.09 | 0.09 | 95 | 1020.3 |
| 20260507143017 | 62 | 96 | 0.0 | 0.9 | 0.05 | 0.09 | 0.09 | 95 | 1020.5 |
| 20260507141516 | 62 | 96 | 0.0 | 0.9 | 0.05 | 0.09 | 0.09 | 95 | 1020.6 |
| 20260507140014 | 62 | 96 | 0.0 | 2.6 | 0.04 | 0.08 | 0.08 | 95 | 1020.7 |
| 20260507134513 | 62 | 78 | 0.0 | 3.5 | 0.05 | 0.08 | 0.08 | 95 | 1020.8 |
| 20260507133011 | 62 | 74 | 1.7 | 5.2 | 0.04 | 0.04 | 0.04 | 95 | 1021.0 |
| 20260507131509 | 62 | 111 | 0.0 | 4.3 | 0.04 | 0.04 | 0.04 | 94 | 1021.1 |
| 20260507130006 | 63 | 88 | 0.9 | 4.3 | 0.04 | 0.04 | 0.04 | 93 | 1021.3 |
| 20260507124505 | 63 | 12 | 2.6 | 9.6 | 0.03 | 0.03 | 0.03 | 92 | 1021.5 |
| 20260507123006 | 64 | 105 | 0.9 | 4.3 | 0.00 | 0.00 | 0.00 | 92 | 1021.4 |
| 20260507121616 | 63 | 120 | 0.0 | 3.5 | 0.00 | 0.00 | 0.00 | 93 | 1021.5 |
| 20260507120103 | 63 | 82 | 0.9 | 2.6 | 0.00 | 0.00 | 0.00 | 94 | 1021.6 |
| 20260507114638 | 63 | 107 | 0.0 | 2.6 | 0.00 | 0.00 | 0.00 | 94 | 1021.6 |
| 20260507113054 | 61 | 116 | 0.0 | 1.7 | 0.00 | 0.00 | 0.00 | 95 | 1021.8 |
| 20260507111558 | 60 | 111 | 0.0 | 0.9 | 0.00 | 0.00 | 0.00 | 94 | 1022.0 |
| 20260507110052 | 59 | 112 | 0.0 | 0.9 | 0.00 | 0.00 | 0.00 | 93 | 1022.1 |
| 20260507104551 | 59 | 112 | 0.0 | 0.9 | 0.00 | 0.00 | 0.00 | 92 | 1022.3 |
| 20260507103048 | 60 | 111 | 0.0 | 0.9 | 0.00 | 0.00 | 0.00 | 91 | 1022.1 |
| 20260507101547 | 62 | 110 | 0.0 | 0.9 | 0.00 | 0.00 | 0.00 | 91 | 1022.1 |
| 20260507100043 | 62 | 111 | 0.0 | 1.7 | 0.00 | 0.00 | 0.00 | 92 | 1022.3 |
| 20260507094543 | 63 | 110 | 0.0 | 1.7 | 0.00 | 0.00 | 0.00 | 91 | 1022.2 |
| 20260507093047 | 63 | 111 | 0.0 | 0.9 | 0.00 | 0.00 | 0.00 | 90 | 1022.4 |
| 20260507091546 | 63 | 111 | 0.0 | 0.9 | 0.00 | 0.00 | 0.00 | 90 | 1022.4 |
| 20260507090042 | 62 | 111 | 0.0 | 0.9 | 0.00 | 0.00 | 0.00 | 91 | 1022.5 |
| 20260507084553 | 62 | 109 | 0.0 | 0.9 | 0.00 | 0.00 | 0.00 | 90 | 1022.6 |
| 20260507083039 | 62 | 109 | 0.0 | 0.9 | 0.00 | 0.00 | 0.00 | 90 | 1022.6 |
| 20260507081540 | 62 | 109 | 0.0 | 0.0 | 0.00 | 0.00 | 0.00 | 90 | 1022.7 |
| 20260507080041 | 62 | 108 | 0.0 | 0.9 | 0.00 | 0.00 | 0.00 | 89 | 1022.8 |
| 20260507074537 | 62 | 108 | 0.0 | 0.9 | 0.00 | 0.00 | 0.00 | 88 | 1022.8 |
| 20260507073036 | 62 | 108 | 0.0 | 1.7 | 0.00 | 0.00 | 0.00 | 88 | 1022.8 |
| 20260507071535 | 62 | 108 | 0.0 | 0.9 | 0.00 | 0.00 | 0.00 | 88 | 1022.8 |
| 20260507070036 | 62 | 103 | 0.0 | 0.9 | 0.00 | 0.00 | 0.00 | 87 | 1022.7 |
| 20260507064535 | 63 | 98 | 0.0 | 2.6 | 0.00 | 0.00 | 0.00 | 86 | 1022.6 |
| 20260507063134 | 63 | 105 | 0.0 | 1.7 | 0.00 | 0.00 | 0.00 | 85 | 1022.5 |
| 20260507061532 | 64 | 103 | 0.0 | 1.7 | 0.00 | 0.00 | 0.00 | 86 | 1022.4 |
| 20260507060035 | 64 | 99 | 0.0 | 0.9 | 0.00 | 0.00 | 0.00 | 85 | 1022.6 |
| 20260507054536 | 64 | 99 | 0.0 | 1.7 | 0.00 | 0.01 | 0.00 | 84 | 1022.8 |
| 20260507053029 | 65 | 100 | 0.0 | 0.9 | 0.00 | 0.01 | 0.00 | 83 | 1022.7 |
| 20260507051531 | 65 | 101 | 0.0 | 1.7 | 0.00 | 0.01 | 0.00 | 82 | 1022.7 |
| 20260507050029 | 66 | 98 | 0.0 | 1.7 | 0.00 | 0.01 | 0.00 | 81 | 1022.8 |
| 20260507044526 | 66 | 115 | 0.0 | 1.7 | 0.00 | 0.01 | 0.00 | 80 | 1022.7 |
| 20260507043025 | 67 | 103 | 0.0 | 2.6 | 0.00 | 0.01 | 0.00 | 79 | 1022.9 |
| 20260507041523 | 67 | 106 | 0.0 | 2.6 | 0.00 | 0.01 | 0.00 | 79 | 1023.1 |
| 20260507040022 | 68 | 98 | 0.9 | 2.6 | 0.00 | 0.01 | 0.00 | 78 | 1023.2 |
| 20260507034522 | 68 | 120 | 0.0 | 3.5 | 0.00 | 0.01 | 0.00 | 77 | 1023.2 |
| 20260507033021 | 68 | 108 | 0.0 | 3.5 | 0.00 | 0.01 | 0.00 | 77 | 1023.4 |
| 20260507031517 | 69 | 63 | 1.7 | 6.1 | 0.00 | 0.01 | 0.00 | 74 | 1023.6 |
| 20260507030020 | 70 | 82 | 0.9 | 4.3 | 0.00 | 0.01 | 0.00 | 73 | 1023.6 |
| 20260507024516 | 71 | 132 | 0.9 | 5.2 | 0.00 | 0.01 | 0.00 | 71 | 1023.6 |
| 20260507023014 | 71 | 41 | 2.6 | 6.1 | 0.00 | 0.01 | 0.00 | 72 | 1023.6 |
| 20260507021511 | 70 | 74 | 1.7 | 7.0 | 0.00 | 0.01 | 0.00 | 74 | 1023.7 |
| 20260507020010 | 69 | 25 | 1.7 | 7.0 | 0.00 | 0.01 | 0.00 | 75 | 1023.8 |
| 20260507014507 | 69 | 93 | 1.7 | 7.0 | 0.00 | 0.01 | 0.00 | 74 | 1024.0 |
| 20260507013012 | 69 | 80 | 2.6 | 6.1 | 0.00 | 0.01 | 0.00 | 76 | 1024.0 |
| 20260507011509 | 68 | 102 | 1.7 | 5.2 | 0.00 | 0.01 | 0.00 | 79 | 1024.2 |
| 20260507010003 | 68 | 77 | 1.7 | 7.0 | 0.00 | 0.01 | 0.00 | 80 | 1024.2 |